DMSP 5D-2 F13 DEB, 42323

Orbit data source: Space-Track

DMSP 5D-2 F13 DEB, 42323 is space debris in LEO originally from a launch on Fri, 24 Mar 1995 UTC launched from the Air Force Western Test Range (AFWTR). Debris objects in space refer to the collection of defunct objects orbiting the Earth. Examples of debris include non-operational satellites, rocket bodies, and fragments generated from explosions, collisions, or faulty payload assembly.

Loading next visibility...
DMSP 5D-2 F13 DEB details
Identifier
42323, 1995-015JR
Orbit
LEO
Last TLE update3 days ago
Origin
Flag of USUSAF SMC (US)
ManufacturerUnknown
MissionSpacecraft
Bus & MotorUnknown
MassUnknown
Launch date (UTC)
1995-03-24 (30 years ago)
Launch vehicleUnknown
Launch site
Air Force Western Test Range (AFWTR)
Object type
Payload
Rocket body
Debris
Shape & HBRUnknown
Radar Cross SectionSmall (<0.1 m²)

Expand to show TLE details & history

TLE from 3 days ago
0 DMSP 5D-2 F13 DEB
1 42323U 95015JR  24345.75234588  .00001031  00000-0  53583-3 0  9996
2 42323  98.8401 353.7934 0003077 147.8190 212.3173 14.16917644474295
Epoch: 2024-12-10T18:03Z
Definitive object data (Epoch: 2024-12-10T18:03:22.684Z)
Latitude0.00004°
Longitude2.992°
Altitude840.578 km
Speed7.432 km/s
True Right ascension23h 35m 10s
True Declination0° 00' 00"
Sunlit
Object was in daylight at TLE epoch
Visualization TLE readout
Latitude0.94217°
Longitude-174.23131°
Altitude836.831 km
Speed7.435 km/s
Apparent Right ascension14h 35m 36s
Apparent Declination-33° 32' 23"
Sunlit
Object is in daylight
Visualization observer readout
Local Sidereal Time08:06:02
Azimuth113.241° SE
Elevation-25.897°
Doppler factor1
Orbital elements
Apogee altitude835.184 km
Perigee altitude830.746 km
Semi-major axis7,211.102 km
Eccentricity0.0003077
Inclination98.8401°
RAAN353.7934°
Arg. of periapsis147.819°
True anomaly212.29846°
Mean anomaly212.3173°
Eccentric anomaly212.30788°
Mean motion3.54438 °/min
BSTAR0.00053583
Orbital period101.57 mins
Loading maneuver chart data...

DMSP 5D-2 F13 DEB Visibility forecast

Observer location: undefined°, undefined

Span
Click to sort rows by Start time (UTC) header in descending order
Start Az.
Max El. time (UTC)
Max El. Az.
Max El.
End time (UTC)
End Az.
8 mins2024-12-13 12:45:14.910Z43.124° NE2024-12-13 12:49:14.910Z99.825° ESE24.805°2024-12-13 12:53:14.910Z151.357° SSE
8 mins2024-12-13 14:26:14.910Z346.434° N2024-12-13 14:29:14.910Z296.517° NW30.912°2024-12-13 14:34:14.910Z226.628° WSW
8 mins2024-12-14 00:09:14.910Z134.564° SE2024-12-14 00:13:14.910Z57.466° ENE35.208°2024-12-14 00:17:14.910Z1.729° NNE
6 mins2024-12-14 01:51:14.910Z234.26° WSW2024-12-14 01:53:14.910Z263.18° W20.73°2024-12-14 01:57:14.910Z313.993° NW
|